Juliana Airport, Sint Maarten

1:45 AM AST on February 21, 2018 (GMT -0400)
Princess Juliana International

Weather History for TNCM - April, 2013

Change the Weather History Date:

Saturday, April 20, 2013

  Actual Average Record
Temperature  
Mean Temperature 80 °F -  
Max Temperature 83 °F 84 °F 87 °F (2001)
Min Temperature 77 °F 75 °F 68 °F (2005)
Cooling Degree Days 15    
Growing Degree Days 30 (Base 50)    
Moisture  
Dew Point 68 °F    
Average Humidity 66    
Maximum Humidity 78    
Minimum Humidity 45    
Precipitation  
Precipitation 0.00 in 0.11 in - ()
Sea Level Pressure  
Sea Level Pressure 30.04 in    
Wind  
Wind Speed 15 mph ()    
Max Wind Speed 24 mph    
Max Gust Speed 41 mph    
Visibility 8.4 miles    
Events Rain    
Averages and records for this station are not official NWS values.
T = Trace of Precipitation, MM = Missing Value Source: Averaged Metar Reports

Daily Weather History Graph

Daily Weather History Graph

Search for Another Location

Airport or City:

Trip Planner

Search our weather history database for the weather conditions in past years. The results will help you decide how hot, cold, wet, or windy it might be!

Date:

Astronomy

Apr. 20, 2013 Rise Set
Actual Time 5:52 AM AST 6:30 PM AST
Civil Twilight 5:30 AM AST 6:52 PM AST
Nautical Twilight 5:03 AM AST 7:19 PM AST
Astronomical Twilight 4:37 AM AST 7:45 PM AST
Moon 1:52 PM AST (4/20) 1:53 AM AST (4/20)
Length of Visible Light 13h 22m
Length of Day
12h 38m
Waxing Gibbous, 71% of the Moon is Illuminated
Apr 20
Waxing Gibbous
Apr 25
Full
May 2
Last Quarter
May 9
New
May 18
First Quarter

Hourly Weather History & Observations

Time (AST) Temp. Heat Index Dew Point Humidity Pressure Visibility Wind Dir Wind Speed Gust Speed Precip Events Conditions
12:00 AM 78.8 °F - 69.8 °F 74% 30.06 in 6.2 mi East 18.4 mph - N/A   Scattered Clouds
1:00 AM 77.0 °F - 69.8 °F 78% 30.04 in 6.2 mi East 16.1 mph - N/A   Partly Cloudy
2:00 AM 78 °F - 69 °F 66% 30.03 in 22 mi ESE 15.0 mph - -   Partly Cloudy
2:00 AM 78.8 °F - 68.0 °F 69% 30.01 in 6.2 mi East 17.3 mph - N/A   Scattered Clouds
3:00 AM 77.0 °F - 69.8 °F 78% 30.01 in 6.2 mi East 15.0 mph - N/A   Mostly Cloudy
4:00 AM 77.0 °F - 69.8 °F 78% 30.01 in 6.2 mi East 17.3 mph - N/A Rain Light Rain Showers
5:00 AM 78 °F - 68 °F 65% 30.03 in 22 mi East 19.6 mph - -   Partly Cloudy
5:00 AM 77.0 °F - 68.0 °F 74% 30.01 in 6.2 mi East 19.6 mph - N/A   Scattered Clouds
6:00 AM 77.0 °F - 68.0 °F 74% 30.04 in 6.2 mi East 13.8 mph - N/A   Scattered Clouds
7:00 AM 78.8 °F - 68.0 °F 69% 30.04 in 6.2 mi East 12.7 mph - N/A   Scattered Clouds
8:00 AM 80 °F - 69 °F 61% 30.07 in 19 mi East 16.1 mph - -   Partly Cloudy
8:00 AM 78.8 °F - 68.0 °F 69% 30.06 in 6.2 mi East 16.1 mph 28.8 mph N/A   Mostly Cloudy
9:00 AM 80.6 °F 83.2 °F 68.0 °F 65% 30.06 in 6.2 mi East 20.7 mph 32.2 mph N/A   Scattered Clouds
10:00 AM 82.4 °F 84.6 °F 66.2 °F 58% 30.06 in 6.2 mi East 18.4 mph 31.1 mph N/A   Partly Cloudy
11:00 AM 83 °F - 65 °F 45% 30.09 in 22 mi East 24.2 mph - -   Partly Cloudy
11:00 AM 82.4 °F 84.6 °F 66.2 °F 58% 30.06 in 6.2 mi East 21.9 mph - N/A   Scattered Clouds
12:00 PM 82.4 °F 85.4 °F 68.0 °F 62% 30.06 in 6.2 mi East 18.4 mph - N/A   Scattered Clouds
1:00 PM 80.6 °F 83.2 °F 68.0 °F 65% 30.04 in 6.2 mi East 23.0 mph 41.4 mph N/A   Scattered Clouds
2:00 PM 81 °F - 68 °F 56% 30.04 in 19 mi East 16.1 mph - -   Partly Cloudy
2:00 PM 80.6 °F 83.2 °F 68.0 °F 65% 30.04 in 6.2 mi East 16.1 mph - N/A   Scattered Clouds
3:00 PM 80.6 °F 83.2 °F 68.0 °F 65% 30.01 in 6.2 mi East 13.8 mph - N/A   Scattered Clouds
4:00 PM 78.8 °F - 68.0 °F 69% 30.01 in 6.2 mi East 13.8 mph - N/A   Scattered Clouds
5:00 PM 80 °F - 68 °F 59% 30.02 in 19 mi East 12.7 mph - -   Overcast
5:00 PM 78.8 °F - 68.0 °F 69% 30.01 in 6.2 mi East 12.7 mph - N/A   Scattered Clouds
6:00 PM 78.8 °F - 68.0 °F 69% 30.01 in 6.2 mi East 9.2 mph - N/A   Scattered Clouds
7:00 PM 78.8 °F - 68.0 °F 69% 30.04 in 6.2 mi East 12.7 mph - N/A   Partly Cloudy
8:00 PM 78 °F - 68 °F 63% 30.04 in 19 mi East 11.5 mph - -   Overcast
8:00 PM 78.8 °F - 68.0 °F 69% 30.04 in 6.2 mi East 11.5 mph - N/A   Scattered Clouds
9:00 PM 78.8 °F - 66.2 °F 65% 30.04 in 6.2 mi East 16.1 mph - N/A   Partly Cloudy
10:00 PM 78.8 °F - 68.0 °F 69% 30.06 in 6.2 mi East 17.3 mph - N/A   Scattered Clouds
11:00 PM 78 °F - 67 °F 62% 30.07 in 19 mi East 13.8 mph - -   Partly Cloudy
11:00 PM 78.8 °F - 68.0 °F 69% 30.06 in 6.2 mi East 13.8 mph - N/A   Scattered Clouds